Location: Bosdarros
(43.2167°N, 0.3667°W)
Time: 07:56:24
(UTC+00:00)

Meteor 2-1 Rocket - Pass Details

Date: 22 April 2021
Orbit: 828 x 909 km, 81.3° (Epoch: 07 May)

Event Time Altitude Azimuth Distance (km) Brightness Sun altitude
Rises 19:51:35 0° 189° (S) 3,474 7.2 -10.7°
Reaches altitude 10° 19:54:00 10° 190° (S) 2,550 6.5 -11.1°
Maximum altitude 19:59:50 86° 279° (W) 909 4.4 -12.0°
Drops below altitude 10° 20:05:48 10° 9° (N) 2,601 7.0 -12.9°
Sets 20:08:18 0° 10° (N) 3,549 7.7 -13.3°
